www.pogodaiklimat.ru

Погода и климат >> Архив погоды >> Россия >> Краснодарский край >> Горный


ПОГОДА в Горном

  • Прогноз погоды в Горном
  • Монитор погоды в Горном
  • Климат города

АРХИВ ПОГОДЫ в Горном

Время (UTC), дата Ветер
(напр.,м/с)
 
Видим.   Явления Облачность Т
(С)
Тd
(С)
f
(%)
Тe
(С)
Тes
(С)
Комфортность P
(гПа)
Po
(гПа)
Тmin
(С)
Tmax
(С)
R
(мм)
S
(см)
09 16.03 ЮЗ 7-12
{13}
50 км 10/10 600 м
[Sc diur, vesp]
+6.7 +2.2 73 +2 +2 1013.5 974.6
12 16.03 Ю 7-14
{18}
50 км 10/10 600 м
[Sc diur, vesp]
+6.6 +2.0 72 +2 +2 1012.5 973.6
15 16.03 ЮЗ 4
{15}
20 км слабый ливневой дождь 10/10 600 м
[Cb cap]
+4.3 +4.3 100 -0 -0 1014.4 975.1 +7.2 2
18 16.03 Ю 4 10 км слабый ливневой дождь 10/10 600 м
[Cb cap]
+4.3 +4.3 100 -0 -0 1014.7 975.4
21 16.03 ЮЗ 3 10 км слабый ливневой дождь 10/10 600 м
[Cb cap]
+4.0 +4.0 100 0 0 1014.5 975.1
00 17.03 Ю 4 10 км слабый ливневой дождь 10/10 600 м
[Cb cap]
+4.5 +4.1 97 0 0 1014.2 975.0
03 17.03 Ю 3 10 км слабый ливневой дождь 10/10 600 м
[Cb cap]
+4.4 +4.2 99 +1 +1 1014.2 974.9 +3.8 8
06 17.03 Ю 2 20 км слабый ливневой дождь 10/8 600 м
[Cb cap Ac cuf]
+5.1 +4.0 93 +2 +3 1014.7 975.5
09 17.03 ЮЗ 2 4000 м ливневой дождь 10/10 600 м
[Cb cap]
+4.8 +4.8 100 +2 +2 1015.3 976.0
12 17.03 ЮЗ 2 50 км {ливн. осадки} 10/8 600 м
[Sc diur, vesp Ci sp]
+7.6 +3.2 74 +6 +7 1013.8 975.0
15 17.03 С 2 50 км 10/4 600 м
[Sc diur, vesp Ac cast Ci sp]
+7.9 +3.4 73 +6 +6 1012.9 974.2 +9.0 10
18 17.03 СВ 2 50 км 4/0
[Ac lent]
+6.1 +2.2 76 +4 +4 1012.6 973.7
21 17.03 СВ 1 20 км 10/4 600 м
[Sc Ac lent]
+4.3 +3.6 95 +3 +3 1012.2 973.0
00 18.03 В 1 20 км слабый ливневой дождь 10/10 600 м
[Cb cap]
+3.0 +3.0 100 +1 +1 1012.1 972.7
03 18.03 СВ 1 20 км {ливн. осадки} 10/6 600 м
[Sc diur, vesp Ac cuf]
+2.9 +2.9 100 +1 +1 1011.1 971.8 +2.7 0.4
06 18.03 штиль 0 20 км слабый ливневой дождь 10/10 600 м
[Cb cap]
+4.1 +4.1 100 +3 +3 1012.0 972.8
09 18.03 ЮЗ 1 10 км слабый ливневой дождь 10/10 600 м
[Cb cap]
+5.7 +5.7 100 +4 +4 1012.2 973.3
12 18.03 Ю 3 20 км слабый ливневой дождь 10/10 600 м
[Cb cap]
+6.3 +5.5 95 +3 +3 1012.1 973.2
15 18.03 ЮЗ 4 20 км {ливн. осадки} 9/9 600 м
[Sc diur, vesp]
+5.9 +2.7 80 +2 +2 1013.4 974.4 +6.4 3
18 18.03 ЮЗ 4
{10}
20 км 8/8 600 м
[Sc]
+4.3 +4.2 99 -0 -0 1015.0 975.7
21 18.03 Ю 3-11
{11}
20 км слабый ливневой дождь 10/10 600 м
[Cb cap]
+4.4 +1.0 79 +1 +1 1013.8 974.5
00 19.03 ЮЗ 5
{11}
20 км {ливн. осадки} 10/8 600 м
[Sc Ac und]
+4.1 -0.5 72 -1 -1 1012.6 973.3
03 19.03 Ю 5
{11}
20 км 10/6 600 м
[Sc Ci sp]
+4.7 +0.3 73 0 0 1011.3 972.2 +3.7
06 19.03 ЮЗ 5-10
{13}
50 км 10/8 600 м
[Sc diur, vesp Ac cast Ci fib]
+6.4 -0.7 60 +3 +3 1009.9 971.1
09 19.03 Ю 7-15
{15}
50 км 10/8 600 м
[Sc diur, vesp Ac cast]
+8.5 -2.9 45 +5 +5 1008.9 970.3
12 19.03 ЮЗ 7-14
{16}
50 км 8/6 600 м
[Sc diur, vesp Ac cast]
+10.9 -2.4 39 +8 +9 1006.2 968.1
15 19.03 Ю 7-12
{18}
50 км 10/10 600 м
[Sc diur, vesp]
+9.2 -3.7 40 +6 +6 1007.0 968.5 +11.6
18 19.03 Ю 3
{12}
50 км 8/5 600 м
[Sc diur, vesp Ci fib]
+8.1 -4.1 42 +6 +6 1006.2 967.7
21 19.03 ЮВ 1 50 км 8/8 600 м
[Sc]
+7.5 -5.1 40 +7 +7 1004.6 966.0
00 20.03 Ю 2
{10}
10 км слабый ливневой дождь 10/10 600 м
[Cb cap]
+6.2 +2.0 74 +4 +4 1003.8 965.2
03 20.03 Ю 1 10 км слабый ливневой дождь 10/10 600 м
[Cb cap]
+5.3 +5.3 100 +4 +4 1002.8 964.1 +4.8 5
06 20.03 Ю 2 20 км слабый ливневой дождь 10/10 600 м
[Cb cap]
+5.8 +5.8 100 +3 +3 1003.3 964.7
09 20.03 Ю 5
{11}
10 км слабый ливневой дождь 10/10 600 м
[Cb cap]
+5.4 +5.4 100 +1 +1 1006.2 967.4
12 20.03 Ю 4 20 км слабый ливневой дождь 10/10 600 м
[Cb cap]
+3.2 +1.9 91 -2 -2 1011.8 972.4
15 20.03 ЮЗ 4 20 км в посл. час ливневой дождь 9/8 600 м
[Cb calv Ac cast]
+3.2 +2.2 93 -2 -2 1013.8 974.4 +6.5 9
18 20.03 Ю 4 20 км {ливн. осадки} 6/6 600 м
[Sc diur, vesp]
+2.8 -0.2 81 -2 -2 1014.6 975.1
21 20.03 Ю 4 10 км слабый ливневой дождь 10/10 600 м
[Cb cap]
+2.6 +2.6 100 -3 -3 1014.1 974.6
00 21.03 ЮЗ 4
{10}
10 км слабый ливневой дождь 10/10 600 м
[Cb cap]
+3.0 +1.0 87 -2 -2 1014.0 974.6
03 21.03 З 1
{10}
4000 м ливневой дождь 10/10 600 м
[Cb cap]
+1.3 +1.3 100 -1 -1 1015.1 975.4 +1.1 7
06 21.03 З 2 10 км слабый ливневой дождь 10/10 300 м
[Cb cap]
+1.7 +1.7 100 -2 -2 1016.5 976.7
09 21.03 З 4 20 км {ливн. осадки} 9/8 600 м
[Cb calv Ac cuf]
+3.8 +3.8 100 -1 0 1016.7 977.3
12 21.03 ЮЗ 3 20 км в посл. час ливневой дождь 10/10 600 м
[Cb cap]
+5.4 +1.6 76 +2 +2 1016.3 977.1
15 21.03 З 1 10 км слабый ливневой дождь 10/10 600 м
[Cb cap]
+2.7 +2.7 100 +1 +1 1017.7 978.1 +5.5 9
18 21.03 Ю 1 10 км слабый ливневой дождь 10/10 600 м
[Cb cap]
+0.9 +0.9 100 -1 -1 1019.0 979.1
21 21.03 ЮЗ 2 4000 м дымка {ливн. осадки} 10/10 600 м
[Sc]
+0.7 +0.7 100 -3 -3 1019.5 979.3
00 22.03 штиль 0 500 м туман [диам. гололёда 0 мм] ясно -0.9 -0.9 100 -2 -2 1019.7 979.4
03 22.03 штиль 0 500 м туман [диам. гололёда 1 мм] 10/10 300 м
[Sc]
-0.8 -0.8 100 -2 -2 1020.4 980.1 -1.2 4
06 22.03 ЮВ 1 200 м туман 6/0
[Ac cast]
+0.9 +0.9 100 -1 +2 1021.4 981.3
09 22.03 Ю 2 20 км {туман} 10/5 600 м
[Sc diur, vesp Ac cast Ci sp]
+7.2 +0.4 62 +5 +8 1020.0 980.9
12 22.03 СЗ 2 20 км слабый ливневой дождь {туман} 10/10 600 м
[Cb cap]
+6.2 +1.1 70 +4 +4 1020.8 981.5
15 22.03 ЮЗ 1 20 км в посл. час ливневой дождь 9/6 600 м
[Sc diur, vesp Ac cuf]
+5.8 +2.5 79 +5 +5 1021.1 981.7 +7.2 0.6
18 22.03 СВ 2 20 км {ливн. осадки} 10/10 600 м
[Sc]
+4.6 +3.9 95 +2 +2 1021.9 982.3
21 22.03 С 2 20 км 10/10 600 м
[Sc]
+3.8 +3.8 100 +1 +1 1022.2 982.5
00 23.03 С 1 20 км 10/10 600 м
[Sc]
+3.3 +3.3 100 +2 +2 1022.2 982.4
03 23.03 С 1 20 км 10/10 600 м
[Sc]
+3.4 +3.4 100 +2 +2 1022.7 982.9 +3.1
06 23.03 С 1 50 км 4/0
[Ac lent]
+6.6 +2.4 75 +6 +10 1022.6 983.3

 

Местоположение метеостанции Горный (Краснодарский край, Россия): широта 44.28 долгота 39.27 высота над уровнем моря 323 м.

В архиве по умолчанию представлена погода в Горном за последнюю неделю. Архивные данные за месяц целиком и за предыдущие месяцы, начиная с января 2011 года, Вы можете получить, выбрав интересующий диапазон дат из раскрывающегося списка и нажав кнопку "Ввод!".

Внимание! Время в таблицах - всемирное. Для получения местного времени необходимо прибавить поправку, которая в Горном равна 3 ч.

Смотрите также архив погоды в соседних городах и на ближайших метеорологических станциях:

Погода в Туапсе (Краснодарский край, Россия) (26 км)
Погода в Горячем Ключе (Краснодарский край, Россия) (41 км)
Погода в Джубге (Краснодарский край, Россия) (44 км)
Погода в Шунтуке (Адыгея, Россия) (71 км)
Погода в Белореченске (Краснодарский край, Россия) (72 км)
Погода в Майкопе (Адыгея, Россия) (75 км)
Погода в Гузерипле (Адыгея, Россия) (75 км)
Погода в Сочи (Краснодарский край, Россия) (88 км)
Погода в Краснодаре (Краснодарский край, Россия) (88 км)
Погода в Кепше (Краснодарский край, Россия) (96 км)

Пояснения к столбцам:

Ветер - указаны скорость ветра в м/с - средняя за 10 мин, порывы в срок и между сроками (в фигурных скобках) и направление, откуда дует ветер: С - северный, СВ - северо-восточный, В - восточный, ЮВ - юго-восточный, Ю - южный, ЮЗ - юго-западный, З - западный, СЗ - северо-западный.
Видимость - горизонтальная дальность видимости в метрах или километрах. При видимости от 1 до 10 км при отсутствии осадков обычно наблюдается дымка, при ухудшении видимости до 1 км и менее - туман. В сухую погоду видимость может ухудшаться дымом, пылью или мглою.
Явления - указаны атмосферные явления, наблюдавшиеся в срок или в последний час перед сроком; фигурными скобками обозначены явления, наблюдавшиеся между сроками (за 1-3 часа до срока); квадратными скобками обозначены град или гололедные отложения с указанием их диаметра в мм.
Облачность - указаны через наклонную черту общая и нижняя облачность в баллах и высота нижней границы облаков в метрах; квадратными скобками обозначены формы облаков: Ci - перистые, Cs - перисто-слоистые, Cc - перисто-кучевые, Ac - высококучевые, As - высокослоистые, Sc - слоисто-кучевые, Ns - слоисто-дождевые, Cu - кучевые, Cb - кучево-дождевые. Подробнее классификацию облаков см. в Атласе облаков (PDF).
T - Температура воздуха - температура, измеренная на высоте 2 м над землей.
Td - Температура точки росы - температура, при понижении до которой содержащийся в воздухе водяной пар достигнет насыщения.
f - Относительная влажность воздуха - влажноcть воздуха, измеренная на высоте 2 м над землей.
Te - Эффективная температура - температура, которую ощущает одетый по сезону человек в тени. Характеристика душности погоды. При расчете учитывается влияние влажности воздуха и скорости ветра на теплоощущения человека.
Tes - Эффективная температура на солнце - температура, которую ощущает человек, с поправкой на солнечный нагрев. Характеристика знойности погоды. Зависит от высоты солнца над горизонтом, облачности и скорости ветра. Ночью, в пасмурную погоду, а также при ветре 12 м/с и более поправка равна нулю.
P - Атмосферное давление - приведенное к уровню моря атмосферное давление.
Po - Атмосферное давление - измеренное на уровне метеостанции атмосферное давление.
Tmin - Минимальная температура - минимум температуры воздуха на высоте 2 м над землей.
Tmax - Максимальная температура - максимум температуры воздуха на высоте 2 м над землей.
R - Количество осадков - Количество выпавших осадков, мм. При наведении курсора мыши на число - период времени, за который выпало указанное количество осадков.
S - Снежный покров - Высота снежного покрова, см. При наведении курсора мыши на число - состояние снежного покрова и степень покрытия местности в баллах.